User: anonymous   Login
Location: Asheville, NC
(35.6000°N, 82.5500°W)
Time: 23:09:39
(UTC-04:00)
Language:

XW-2D - Orbit

View from above orbital plane
View from above orbital plane
View from above satellite
View from above satellite

Ground track
Ground track

The orbit data is extracted from the following two-line orbital elements,

1 40907U 15049J   18113.92386527  .00000802  00000-0  46052-4 0  9996
2 40907  97.4579 118.1158 0013493 210.1722 149.8735 15.15265765143281
Epoch (UTC): 23 April 2018 22:10:21
Eccentricity: 0.0013493
inclination: 97.4579°
perigee height: 511 km
apogee height: 529 km
right ascension of ascending node: 118.1158°
argument of perigee: 210.1722°
revolutions per day: 15.15265765
mean anomaly at epoch: 149.8735°
orbit number at epoch: 14328

The dashed part of the orbit path shows where the satellite is in the earth's shadow,  

DLR